Tracking 19242 objects as of 20-Sep-2018
HD Live streaming from Space Station
objects crossing your sky now

FENGYUN 1C DEB

Track FENGYUN 1C DEB now!
10-day predictions


NORAD ID: 30857
Int'l Code: 1999-025AWT
Perigee: 820.0 km
Apogee: 929.5 km
Inclination: 98.9 °
Period: 102.3 minutes
Semi major axis: 7245 km
RCS: 0.0138 m2 (small)
Launch date: May 10, 1999
Source: People's Republic of China (PRC)
Launch site: Taiyaun Space Center, China (TSC)

Note: This is SATELLITE DEBRIS
aabbcc
Your satellite tracking list
Your tracking list is empty




NASA's NSSDC Master Catalog

Two Line Element Set (TLE):
1 30857U 99025AWT 18262.75686601  .00000398  00000-0  25554-3 0  9990
2 30857  98.9228 196.9771 0075596 251.7295 107.5637 14.07595720593260
Source of the keplerian elements: AFSPC